This is the latest recevied weather packets stored in our database for station/object WC0AA-WX. If no packets are shown the sender has not sent any weather packets the latest 10 day(s).
| Time | Temp. | Humidity | Pressure | Rain* | Wind** | Luminosity | Snow |
|---|---|---|---|---|---|---|---|
| 1778057361 | 7.78° C | 61% | 1016.3 hPa | 0 mm | - | - | - |
| 1778056759 | 7.78° C | 60% | 1016 hPa | 0 mm | - | - | - |
| 1778056158 | 7.78° C | 63% | 1016 hPa | 0 mm | - | - | - |
| 1778055557 | 8.33° C | 62% | 1015.8 hPa | 0 mm | - | - | - |
| 1778054956 | 8.33° C | 58% | 1015.9 hPa | 0 mm | - | - | - |
| 1778053754 | 8.33° C | 56% | 1016.1 hPa | 0 mm | - | - | - |
| 1778053153 | 8.33° C | 56% | 1016 hPa | 0 mm | - | - | - |
| 1778052552 | 8.33° C | 56% | 1015.9 hPa | 0 mm | - | - | - |
| 1778051951 | 8.89° C | 57% | 1015.6 hPa | 0 mm | - | - | - |
| 1778051350 | 8.89° C | 57% | 1015.3 hPa | 0 mm | - | - | - |
| 1778050749 | 8.89° C | 57% | 1015.3 hPa | 0 mm | - | - | - |
| 1778049547 | 9.44° C | 56% | 1015.2 hPa | 0 mm | - | - | - |
| 1778048946 | 9.44° C | 55% | 1015.2 hPa | 0 mm | - | - | - |
| 1778048345 | 9.44° C | 55% | 1015 hPa | 0 mm | - | - | - |
| 1778042936 | 10° C | 52% | 1014.9 hPa | 0 mm | - | - | - |
| 1778042336 | 10.56° C | 51% | 1015.2 hPa | 0 mm | - | - | - |
| 1778041134 | 10.56° C | 50% | 1015 hPa | 0 mm | - | - | - |
| 1778039330 | 11.11° C | 47% | 1015 hPa | 0 mm | - | - | - |
| 1778038729 | 11.67° C | 46% | 1014.5 hPa | 0 mm | - | - | - |
| 1778037527 | 12.22° C | 41% | 1014.2 hPa | 0 mm | - | - | - |
| 1778036927 | 11.67° C | 43% | 1013.9 hPa | 0 mm | - | - | - |
| 1778036326 | 11.67° C | 46% | 1013.9 hPa | 0 mm | - | - | - |
| 1778035725 | 11.67° C | 45% | 1013.5 hPa | 0 mm | - | - | - |
| 1778035124 | 11.67° C | 45% | 1013.3 hPa | 0 mm | - | - | - |
| 1778029114 | 12.78° C | 48% | 1012.5 hPa | 0 mm | - | - | - |
* Rain latest hour (hover to see other rain measurements)
** Current wind speed in m/s (hover to see current wind gust speed)